Regional Weather Roundup
Issued by NWS

Home | Current Version | Previous Version | Text Only | Print | Product List | Glossary Off
Versions: 1 2 3 4 5 6 7 8 9 10 11 12 13 14 15 16 17 18 19 20 21 22 23 24 25 26 27 28 29 30 31 32 33 34 35 36 37 38 39 40 41 42 43 44 45 46 47 48 49 50

000
ASUS43 KTOP 251108
RWRKS

WEATHER ROUNDUP FOR KANSAS
NATIONAL WEATHER SERVICE GOODLAND KS
600 AM CDT THU MAY 25 2017

NOTE:  "FAIR" INDICATES FEW OR NO CLOUDS BELOW 12,000 FEET WITH NO
SIGNIFICANT WEATHER AND/OR OBSTRUCTIONS TO VISIBILITY.

KSZ001>006-013>018-027>032-041>047-251200-
NORTHWEST KANSAS

CITY           SKY/WX    TMP DP  RH WIND       PRES   REMARKS
GOODLAND       CLEAR     52  46  80 S18       29.50S
HAYS           CLEAR     48  44  86 S9        29.58S
HILL CITY      CLEAR     49  45  86 S5        29.56S
RUSSELL        CLEAR     52  44  74 S21       29.56F
$$

KSZ061>065-074>080-084>089-251200-
SOUTHWEST KANSAS

CITY           SKY/WX    TMP DP  RH WIND       PRES   REMARKS
DODGE CITY     CLEAR     52  44  74 S17       29.57F
ELKHART          N/A     48  39  71 S9          N/A
GARDEN CITY    PTCLDY    50  44  80 S13       29.55F
GREAT BEND     CLEAR     51  45  79 SE14      29.59F
LIBERAL        CLOUDY    50  47  89 SE7       29.56F
PRATT          PTCLDY    49  42  77 S14       29.61S
$$

KSZ066>073-081>083-090>101-251200-
SOUTHEAST KANSAS

CITY           SKY/WX    TMP DP  RH WIND       PRES   REMARKS
CHANUTE        PTCLDY    46  44  93 SE3       29.71R
COFFEYVILLE    PTCLDY    46  46 100 CALM      29.72R
HUTCHINSON     CLEAR     51  44  77 S10       29.64S
MEDICINE LODGE   N/A     53  45  74 SE7       29.62F
NEWTON         CLEAR     48  44  86 SE9       29.66F
PARSONS        PTCLDY    45  43  93 CALM      29.72S
WICHITA INTL   CLEAR     50  46  86 S8        29.65S
WICHITA JABRA  CLEAR     49  44  83 SE8       29.66S
WICHITA MCCONL CLEAR     50  44  78 SE7       29.66R
WINFIELD       CLEAR     51  45  79 SE8       29.68F
$$

KSZ007>012-019>026-033>040-048>060-102>105-251200-
NORTHEAST KANSAS

CITY           SKY/WX    TMP DP  RH WIND       PRES   REMARKS
CONCORDIA      CLEAR     50  45  83 S10       29.63R
EMPORIA        PTCLDY    46  45  96 S7        29.69R
LAWRENCE       CLEAR     46  46 100 E5        29.70R
MANHATTAN      CLEAR     46  44  93 CALM      29.66S
MARYSVILLE     CLEAR     46  45  93 SE7       29.65F
OLATHE IND     CLEAR     45  43  93 SE5       29.71R
OLATHE EXE     CLEAR     45  45 100 S3        29.70S
SALINA         PTCLDY    52  45  77 S10       29.62F
TOPEKA BILLARD PTCLDY    48  48 100 CALM      29.69R
TOPEKA FORBES  PTCLDY    47  45  93 CALM      29.69R
$$




USA.gov is the U.S. government's official web portal to all federal, state and local government web resources and services.